Location: Monteux
(44.0348°N, 4.9972°E)
Time: 17:45:36
(UTC+00:00)

Envisat - Pass Details

Date: 30 November 2020
Orbit: 764 x 766 km, 98.1° (Epoch: 18 January)

Event Time Altitude Azimuth Distance (km) Brightness Sun altitude
Rises 17:11:17 0° 183° (S) 3,218 6.5 -11.9°
Reaches altitude 10° 17:13:41 10° 190° (S) 2,297 5.9 -12.3°
Maximum altitude 17:18:30 44° 262° (W) 1,053 4.3 -13.2°
Drops below altitude 10° 17:23:22 10° 334° (NNW) 2,313 5.6 -14.0°
Sets 17:25:48 0° 341° (NNW) 3,244 6.3 -14.4°
